This is the latest recevied weather packets stored in our database for station/object OK2ZAW-23. If no packets are shown the sender has not sent any weather packets the latest 10 day(s).
| Time | Temp. | Humidity | Pressure | Rain* | Wind** | Luminosity | Snow |
|---|---|---|---|---|---|---|---|
| 1777621356 | 12.22° C | 49% | 1025.9 hPa | - | - | 335 W/m² | - |
| 1777619476 | 11.67° C | 53% | 1025.7 hPa | - | - | 335 W/m² | - |
| 1777619162 | 11.11° C | 52% | 1025.7 hPa | - | - | 335 W/m² | - |
| 1777618222 | 10.56° C | 53% | 1025.7 hPa | - | - | 335 W/m² | - |
| 1777617282 | 10° C | 55% | 1025.8 hPa | - | - | 335 W/m² | - |
| 1777616030 | 9.44° C | 59% | 1025.8 hPa | - | - | 335 W/m² | - |
| 1777615403 | 8.89° C | 59% | 1025.7 hPa | - | - | 335 W/m² | - |
| 1777614464 | 7.78° C | 64% | 1025.7 hPa | - | - | 335 W/m² | - |
| 1777613211 | 7.22° C | 65% | 1025.8 hPa | - | - | 335 W/m² | - |
| 1777612272 | 6.67° C | 67% | 1025.9 hPa | - | - | 335 W/m² | - |
| 1777611959 | 6.11° C | 66% | 1025.7 hPa | - | - | 335 W/m² | - |
| 1777611333 | 6.11° C | 66% | 1025.7 hPa | - | - | 335 W/m² | - |
| 1777610082 | 6.11° C | 68% | 1025.6 hPa | - | - | 335 W/m² | - |
| 1777609769 | 6.11° C | 69% | 1025.6 hPa | - | - | 335 W/m² | - |
| 1777609455 | 5.56° C | 67% | 1025.6 hPa | - | - | 335 W/m² | - |
| 1777608829 | 5.56° C | 68% | 1025.6 hPa | - | - | 335 W/m² | - |
| 1777608517 | 5.56° C | 68% | 1025.6 hPa | - | - | 335 W/m² | - |
| 1777608204 | 5.56° C | 70% | 1025.5 hPa | - | - | 335 W/m² | - |
| 1777607265 | 4.44° C | 69% | 1025.5 hPa | - | - | 335 W/m² | - |
| 1777606639 | 5° C | 76% | 1025.5 hPa | - | - | 335 W/m² | - |
| 1777606326 | 5° C | 69% | 1025.5 hPa | - | - | 335 W/m² | - |
| 1777606013 | 4.44° C | 69% | 1025.5 hPa | - | - | 335 W/m² | - |
| 1777605388 | 5° C | 74% | 1025.5 hPa | - | - | 335 W/m² | - |
| 1777604762 | 5° C | 74% | 1025.6 hPa | - | - | 335 W/m² | - |
| 1777603510 | 5° C | 63% | 1025.5 hPa | - | - | 335 W/m² | - |
* Rain since midnight (hover to see other rain measurements)
** Current wind speed in m/s (hover to see current wind gust speed)